• In Latvia
  • List of Countries
  • For 7 days
  • Water Temperature
  • Satellite Maps
  • Weather Map
  • Weather Widgets
  • user-avatar
    Login

    Hourly Weather Malanje

    Today, 1 May, Monday

    Time Temperature Precipitation Wind Pressure Humidity
    00:00 +19°C° 0 mm 2 mps 665 mmHg 74%
    01:00 +18°C° 0 mm 2 mps 665 mmHg 73%
    02:00 +18°C° 0 mm 2 mps 665 mmHg 74%
    03:00 +18°C° 0 mm 2 mps 665 mmHg 75%
    04:00 +18°C° 0 mm 2 mps 665 mmHg 76%
    05:00 +18°C° 0 mm 2 mps 665 mmHg 77%
    06:00 +18°C° 0 mm 2 mps 666 mmHg 78%
    07:00 +18°C° 0 mm 2 mps 666 mmHg 79%
    08:00 +20°C° 0 mm 3 mps 667 mmHg 71%
    09:00 +23°C° 0 mm 4 mps 667 mmHg 63%
    10:00 +26°C° 0 mm 5 mps 668 mmHg 55%
    11:00 +27°C° 0 mm 4 mps 667 mmHg 53%
    12:00 +27°C° 0 mm 4 mps 667 mmHg 50%
    13:00 +28°C° 0 mm 4 mps 667 mmHg 47%
    14:00 +28°C° 0 mm 3 mps 666 mmHg 49%
    15:00 +28°C° 0 mm 3 mps 666 mmHg 51%
    16:00 +28°C° 0 mm 2 mps 665 mmHg 53%
    17:00 +25°C° 0 mm 2 mps 665 mmHg 61%
    18:00 +23°C° 0 mm 2 mps 664 mmHg 69%
    19:00 +20°C° 0 mm 1 mps 664 mmHg 76%
    20:00 +19°C° 0 mm 1 mps 664 mmHg 76%
    21:00 +19°C° 0 mm 1 mps 665 mmHg 76%
    22:00 +18°C° 0 mm 1 mps 665 mmHg 76%
    23:00 +18°C° 0 mm 1 mps 665 mmHg 77%

    Tomorrow, 2 May, Tuesday

    Time Temperature Precipitation Wind Pressure Humidity
    00:00 +18°C° 0 mm 1 mps 665 mmHg 77%
    01:00 +18°C° 0 mm 1 mps 664 mmHg 78%
    02:00 +18°C° 0 mm 1 mps 664 mmHg 77%
    03:00 +16°C° 0 mm 2 mps 664 mmHg 76%
    04:00 +16°C° 0 mm 2 mps 664 mmHg 75%
    05:00 +17°C° 0 mm 2 mps 665 mmHg 75%
    06:00 +17°C° 0 mm 2 mps 665 mmHg 76%
    07:00 +17°C° 0 mm 2 mps 666 mmHg 77%
    08:00 +20°C° 0 mm 3 mps 666 mmHg 69%
    09:00 +22°C° 0 mm 4 mps 667 mmHg 62%
    10:00 +26°C° 0 mm 5 mps 668 mmHg 55%
    11:00 +26°C° 0 mm 5 mps 667 mmHg 53%
    12:00 +27°C° 0 mm 4 mps 667 mmHg 50%
    13:00 +28°C° 0 mm 4 mps 666 mmHg 47%
    14:00 +28°C° 0 mm 3 mps 666 mmHg 49%
    15:00 +28°C° 0 mm 3 mps 665 mmHg 51%
    16:00 +28°C° 0 mm 2 mps 665 mmHg 52%
    17:00 +25°C° 0 mm 2 mps 664 mmHg 60%
    18:00 +23°C° 0 mm 2 mps 664 mmHg 67%
    19:00 +20°C° 0 mm 1 mps 664 mmHg 75%
    20:00 +19°C° 0 mm 1 mps 664 mmHg 75%
    21:00 +19°C° 0 mm 1 mps 664 mmHg 76%
    22:00 +18°C° 0 mm 1 mps 665 mmHg 76%
    23:00 +18°C° 0 mm 1 mps 665 mmHg 77%

    Day after tomorrow, 3 May, Wednesday

    Time Temperature Precipitation Wind Pressure Humidity
    00:00 +18°C° 0 mm 1 mps 664 mmHg 77%
    01:00 +18°C° 0 mm 1 mps 664 mmHg 78%
    02:00 +18°C° 0 mm 1 mps 664 mmHg 77%
    03:00 +17°C° 0 mm 2 mps 664 mmHg 77%
    04:00 +17°C° 0 mm 2 mps 664 mmHg 77%
    05:00 +17°C° 0 mm 2 mps 664 mmHg 76%
    06:00 +17°C° 0 mm 2 mps 665 mmHg 76%
    07:00 +17°C° 0 mm 2 mps 666 mmHg 75%
    08:00 +20°C° 0 mm 3 mps 666 mmHg 69%
    09:00 +22°C° 0 mm 4 mps 667 mmHg 62%
    10:00 +26°C° 0 mm 4 mps 668 mmHg 55%
    11:00 +27°C° 0 mm 4 mps 667 mmHg 53%
    12:00 +28°C° 0 mm 4 mps 667 mmHg 50%
    13:00 +29°C° 0 mm 4 mps 666 mmHg 48%
    14:00 +29°C° 0 mm 3 mps 666 mmHg 49%
    15:00 +28°C° 0 mm 3 mps 665 mmHg 51%
    16:00 +28°C° 0 mm 2 mps 665 mmHg 52%
    17:00 +26°C° 0 mm 2 mps 664 mmHg 60%
    18:00 +23°C° 0 mm 1 mps 664 mmHg 68%
    19:00 +20°C° 0 mm 1 mps 664 mmHg 77%
    20:00 +20°C° 0 mm 1 mps 664 mmHg 77%
    21:00 +19°C° 0 mm 1 mps 664 mmHg 78%
    22:00 +19°C° 0 mm 1 mps 665 mmHg 79%
    23:00 +19°C° 0 mm 1 mps 664 mmHg 79%

    4 May, Thursday

    Time Temperature Precipitation Wind Pressure Humidity
    00:00 +18°C° 0 mm 1 mps 664 mmHg 78%
    01:00 +18°C° 0 mm 1 mps 664 mmHg 78%
    02:00 +18°C° 0 mm 1 mps 664 mmHg 76%
    03:00 +17°C° 0 mm 2 mps 664 mmHg 75%
    04:00 +17°C° 0 mm 2 mps 664 mmHg 73%
    05:00 +17°C° 0 mm 2 mps 664 mmHg 73%
    06:00 +17°C° 0 mm 2 mps 665 mmHg 73%
    07:00 +18°C° 0 mm 2 mps 666 mmHg 74%
    08:00 +20°C° 0 mm 3 mps 666 mmHg 67%
    09:00 +23°C° 0 mm 4 mps 667 mmHg 60%
    10:00 +26°C° 0 mm 4 mps 667 mmHg 53%
    11:00 +27°C° 0 mm 4 mps 667 mmHg 50%
    12:00 +28°C° 0 mm 4 mps 666 mmHg 47%
    13:00 +29°C° 0 mm 4 mps 666 mmHg 44%
    14:00 +29°C° 0 mm 3 mps 665 mmHg 46%
    15:00 +29°C° 0 mm 3 mps 665 mmHg 48%
    16:00 +29°C° 0 mm 2 mps 664 mmHg 50%
    17:00 +26°C° 0 mm 2 mps 664 mmHg 57%
    18:00 +23°C° 0 mm 2 mps 664 mmHg 64%
    19:00 +20°C° 0 mm 1 mps 664 mmHg 71%
    20:00 +20°C° 0 mm 1 mps 664 mmHg 71%
    21:00 +20°C° 0 mm 1 mps 664 mmHg 71%
    22:00 +19°C° 0 mm 1 mps 664 mmHg 72%
    23:00 +19°C° 0 mm 1 mps 664 mmHg 72%

    5 May, Friday

    Time Temperature Precipitation Wind Pressure Humidity
    00:00 +19°C° 0 mm 1 mps 664 mmHg 72%
    01:00 +19°C° 0 mm 1 mps 664 mmHg 72%
    02:00 +17°C° 0 mm 2 mps 664 mmHg 71%
    03:00 +17°C° 0 mm 2 mps 664 mmHg 70%
    04:00 +17°C° 0 mm 2 mps 664 mmHg 69%
    05:00 +17°C° 0 mm 3 mps 664 mmHg 71%
    06:00 +17°C° 0 mm 3 mps 665 mmHg 72%
    07:00 +17°C° 0 mm 3 mps 665 mmHg 74%
    08:00 +20°C° 0 mm 4 mps 666 mmHg 67%
    09:00 +22°C° 0 mm 4 mps 666 mmHg 59%
    10:00 +26°C° 0 mm 5 mps 667 mmHg 52%
    11:00 +27°C° 0 mm 5 mps 666 mmHg 49%
    12:00 +28°C° 0 mm 5 mps 666 mmHg 46%
    13:00 +29°C° 0 mm 4 mps 665 mmHg 43%
    14:00 +29°C° 0 mm 4 mps 665 mmHg 45%
    15:00 +29°C° 0 mm 3 mps 665 mmHg 47%
    16:00 +29°C° 0 mm 2 mps 664 mmHg 49%
    17:00 +26°C° 0 mm 2 mps 664 mmHg 54%
    18:00 +23°C° 0 mm 2 mps 664 mmHg 58%
    19:00 +20°C° 0 mm 2 mps 664 mmHg 63%
    20:00 +19°C° 0 mm 2 mps 664 mmHg 63%
    21:00 +19°C° 0 mm 2 mps 664 mmHg 63%
    22:00 +19°C° 0 mm 2 mps 665 mmHg 63%
    23:00 +18°C° 0 mm 2 mps 664 mmHg 63%

    6 May, Saturday

    Time Temperature Precipitation Wind Pressure Humidity
    00:00 +18°C° 0 mm 2 mps 664 mmHg 63%
    01:00 +18°C° 0 mm 2 mps 664 mmHg 63%
    02:00 +17°C° 0 mm 2 mps 664 mmHg 64%
    03:00 +17°C° 0 mm 2 mps 664 mmHg 66%
    04:00 +17°C° 0 mm 2 mps 664 mmHg 67%
    05:00 +17°C° 0 mm 3 mps 665 mmHg 68%
    06:00 +17°C° 0 mm 3 mps 665 mmHg 70%
    07:00 +17°C° 0 mm 3 mps 666 mmHg 72%
    08:00 +20°C° 0 mm 3 mps 666 mmHg 65%
    09:00 +22°C° 0 mm 4 mps 667 mmHg 57%
    10:00 +26°C° 0 mm 5 mps 667 mmHg 50%
    11:00 +27°C° 0 mm 4 mps 667 mmHg 48%
    12:00 +28°C° 0 mm 4 mps 666 mmHg 45%
    13:00 +29°C° 0 mm 4 mps 666 mmHg 42%
    14:00 +29°C° 0 mm 3 mps 665 mmHg 44%
    15:00 +29°C° 0 mm 2 mps 665 mmHg 46%
    16:00 +29°C° 0 mm 2 mps 665 mmHg 47%
    17:00 +26°C° 0 mm 2 mps 665 mmHg 55%
    18:00 +23°C° 0 mm 1 mps 664 mmHg 62%
    19:00 +20°C° 0 mm 1 mps 664 mmHg 70%
    20:00 +20°C° 0 mm 1 mps 664 mmHg 70%
    21:00 +20°C° 0 mm 1 mps 664 mmHg 70%
    22:00 +19°C° 0 mm 1 mps 664 mmHg 70%
    23:00 +19°C° 0 mm 1 mps 664 mmHg 69%
    Show more